Flag for Madagascar Weather past 2 weeks in Toamasina, Madagascar

Now
66 °F

Passing clouds.


Feels Like: 66 °F
Forecast: 67 / 80 °F
Wind: 5 mph from South

Location: Tamatave

Current Time: Sep 20, 2014 at 5:54:38 AM

Latest Report: Sep 20, 2014 at 5:00 AM


Visibility: N/A

Pressure: 30.09 "Hg

Humidity: 94%

Dew point: 64 °F

Location of ToamasinaLocation

Historic Weather in Toamasina — Graph

°F

Toamasina temperature yesterday

Maximum temperature yesterday: 81 °F (at 2:00 PM)
Minimum temperature yesterday: 68 °F (at 6:00 AM)
Average temperature yesterday: 74 °F

Past Weeks' High & Low Weather Summary

 TemperatureHumidityPressure
High81 °F (Sep 10, 2:00 PM)100% (Sep 6, 9:00 PM)30.27 "Hg (Sep 6, 9:00 PM)
Low61 °F (Sep 13, 6:00 AM)51% (Sep 13, 10:00 AM)30.01 "Hg (Sep 17, 3:00 PM)
Average72 °F80%30.16 "Hg
* Reported Sep 5 4:00 AM — Sep 20 4:00 AM, Toamasina, Weather by CustomWeather, © 2014

Note: Actual official high and low records may vary slightly from our data, if they occured in-between our weather recording intervals... More about our weather records

Advertising

Toamasina weather history for previous 24 hours

 ConditionsComfort  
Time TempWeatherWind HumidityBarometerVisibility
4:00 AM
Sep 20
66 °FPassing clouds.5 mph94%30.09 "HgN/A
3:00 AM68 °FPassing clouds.No wind94%30.09 "HgN/A
2:00 AM68 °FScattered showers. Partly cloudy.5 mph94%30.12 "HgN/A
1:00 AM68 °FScattered showers. Partly cloudy.5 mph94%30.12 "Hg5 mi
12:00 AM70 °FLight rain. Partly cloudy.5 mph94%30.15 "Hg4 mi
11:00 PM
Sep 19
72 °FScattered showers. Partly cloudy.7 mph88%30.15 "Hg6 mi
10:00 PM70 °FPassing clouds.No wind94%30.18 "HgN/A
9:00 PM70 °FPassing clouds.No wind94%30.15 "HgN/A
8:00 PM72 °FPassing clouds.No wind88%30.15 "HgN/A
7:00 PM72 °FPassing clouds.2 mph83%30.15 "HgN/A
6:00 PM75 °FPassing clouds.5 mph78%30.12 "HgN/A
5:00 PM77 °FScattered showers. Broken clouds.7 mph74%30.12 "HgN/A
4:00 PM77 °FScattered showers. Broken clouds.9 mph74%30.12 "HgN/A
3:00 PM79 °FBroken clouds.9 mph70%30.09 "HgN/A
2:00 PM81 °FBroken clouds.9 mph66%30.09 "HgN/A
1:00 PM79 °FScattered showers. Broken clouds.9 mph70%30.12 "HgN/A
12:00 PM79 °FBroken clouds.9 mph65%30.15 "HgN/A
11:00 AM79 °FScattered clouds.7 mph65%30.18 "HgN/A
10:00 AM77 °FPartly sunny.5 mph74%30.18 "HgN/A
9:00 AM77 °FScattered showers. Partly sunny.7 mph74%30.18 "HgN/A
8:00 AM72 °FScattered showers. Partly sunny.5 mph94%30.18 "HgN/A
7:00 AM70 °FLight rain. Partly sunny.7 mph94%30.18 "Hg4 mi
6:00 AM68 °FScattered showers. Broken clouds.No wind94%30.15 "HgN/A
5:00 AM70 °FMild.N/A94%30.12 "HgN/A
Weather by CustomWeather, © 2014

See weather overviewHow to use our weather pages